CANX-5

Last updated on Tue Sep 16 2025 00:03:48 GMT+0000 (Coordinated Universal Time)

1 40056U 14034D 25258.56243957 .00000943 00000+0 13068-3 0 9996 2 40056 98.3497 118.3088 0013100 167.8570 192.2959 14.80442886594690
UTC large
Height (km)
Speed (km/s)
/
Latitude / Longitude
Inclination (degrees)
Orbital Period (minutes)
Azimuth
Elevation
Range (km)
Doppler Factor

Next 0 passes for location: London (51.5072 / 0.1276)

Sorry there are no passes over London.